Weather History for Wasilla, AK

Change the Weather History Date:

Saturday, January 4, 2014

  Actual Average Record
Temperature  
Mean Temperature 26 °F -  
Max Temperature 32 °F 18 °F 50 °F (1960)
Min Temperature 21 °F 2 °F -40 °F (1975)
Degree Days  
Heating Degree Days 40    
Moisture  
Dew Point 19 °F    
Average Humidity 86    
Maximum Humidity 93    
Minimum Humidity 55    
Precipitation  
Precipitation 0.01 in - - ()
Sea Level Pressure  
Sea Level Pressure 29.88 in    
Wind  
Wind Speed 10 mph (ENE)    
Max Wind Speed 24 mph    
Max Gust Speed 33 mph    
Visibility 10 miles    
Events      
Averages and records for this station are not official NWS values.
T = Trace of Precipitation, MM = Missing Value Source: NWS Daily Summary

Daily Weather History Graph

Daily Weather History Graph

Search for Another Location

Airport:

Trip Planner

Search our weather history database for the weather conditions in past years. The results will help you decide how hot, cold, wet, or windy it might be!

Date:

Astronomy

Jan. 04, 2014 Rise Set
Actual Time 10:13 AM AKST 3:53 PM AKST
Civil Twilight 9:12 AM AKST 4:54 PM AKST
Nautical Twilight 8:12 AM AKST 5:54 PM AKST
Astronomical Twilight 7:18 AM AKST 6:48 PM AKST
Moon 11:00 AM AKST (1/4) 9:57 PM AKST (1/4)
Length of Visible Light 7h 42m
Length of Day
5h 39m
Waxing Crescent, 16% of the Moon is Illuminated
Jan 4
Waxing Crescent
Jan 7
First Quarter
Jan 15
Full
Jan 23
Last Quarter
Jan 30
New

Hourly Weather History & Observations

Time (AKST) Temp. Windchill Dew Point Humidity Pressure Visibility Wind Dir Wind Speed Gust Speed Precip Events Conditions
12:16 AM 24.8 °F 20.5 °F 21.2 °F 86% 30.21 in 10.0 mi WSW 3.5 mph - N/A   Clear
12:36 AM 24.8 °F - 21.2 °F 86% 30.21 in 10.0 mi Calm Calm - N/A   Clear
12:56 AM 21.2 °F - 17.6 °F 86% 30.20 in 10.0 mi Calm Calm - N/A   Clear
1:16 AM 21.2 °F 16.4 °F 17.6 °F 86% 30.19 in 10.0 mi SW 3.5 mph - N/A   Clear
1:36 AM 21.2 °F 16.4 °F 19.4 °F 93% 30.18 in 10.0 mi WSW 3.5 mph - N/A   Clear
1:56 AM 21.2 °F 16.4 °F 19.4 °F 93% 30.18 in 10.0 mi WSW 3.5 mph - N/A   Clear
2:16 AM 21.2 °F - 19.4 °F 93% 30.17 in 10.0 mi Calm Calm - N/A   Clear
2:36 AM 21.2 °F 16.4 °F 19.4 °F 93% 30.18 in 10.0 mi WSW 3.5 mph - N/A   Clear
2:56 AM 21.2 °F - 19.4 °F 93% 30.17 in 10.0 mi Calm Calm - N/A   Clear
3:16 AM 21.2 °F 14.9 °F 19.4 °F 93% 30.16 in 10.0 mi West 4.6 mph - N/A   Clear
3:36 AM 21.2 °F 16.4 °F 17.6 °F 86% 30.16 in 10.0 mi WSW 3.5 mph - N/A   Clear
3:56 AM 21.2 °F - 19.4 °F 93% 30.15 in 10.0 mi Calm Calm - N/A   Clear
4:16 AM 21.2 °F - 17.6 °F 86% 30.14 in 10.0 mi Calm Calm - N/A   Clear
4:36 AM 21.2 °F - 17.6 °F 86% 30.13 in 10.0 mi Calm Calm - N/A   Clear
4:56 AM 21.2 °F - 17.6 °F 86% 30.11 in 10.0 mi Calm Calm - N/A   Clear
5:16 AM 30.2 °F 22.6 °F 21.2 °F 69% 30.10 in 10.0 mi ENE 8.1 mph - N/A   Clear
5:36 AM - - - N/A% 30.09 in 10.0 mi ENE 12.7 mph 17.3 mph N/A   Clear
5:56 AM - - - N/A% 30.08 in 10.0 mi ENE 10.4 mph 19.6 mph N/A   Mostly Cloudy
6:16 AM - - - N/A% 30.07 in 10.0 mi ENE 13.8 mph 19.6 mph N/A   Overcast
6:36 AM - - - N/A% 30.05 in 10.0 mi ENE 10.4 mph 18.4 mph N/A   Mostly Cloudy
6:56 AM - - - N/A% 30.04 in 10.0 mi ENE 12.7 mph - N/A   Mostly Cloudy
7:16 AM - - - N/A% 30.03 in 10.0 mi ENE 12.7 mph 17.3 mph N/A   Overcast
7:36 AM - - - N/A% 30.02 in 10.0 mi ENE 13.8 mph 19.6 mph N/A   Overcast
7:56 AM - - - N/A% 30.00 in 10.0 mi ENE 11.5 mph - N/A   Overcast
8:16 AM - - - N/A% 29.99 in 10.0 mi NE 17.3 mph 21.9 mph N/A   Overcast
8:36 AM - - - N/A% 29.98 in 10.0 mi ENE 15.0 mph 20.7 mph N/A   Overcast
8:56 AM 32.0 °F 22.5 °F 17.6 °F 55% 29.98 in 10.0 mi ENE 12.7 mph - N/A   Overcast
9:16 AM - - - N/A% 29.97 in 10.0 mi ENE 9.2 mph 19.6 mph N/A   Overcast
9:36 AM - - - N/A% 29.96 in 10.0 mi ENE 16.1 mph 20.7 mph N/A   Overcast
9:56 AM - - - N/A% 29.95 in 10.0 mi ENE 16.1 mph 25.3 mph N/A   Overcast
10:16 AM - - - N/A% 29.95 in 10.0 mi ENE 17.3 mph - N/A   Overcast
10:36 AM - - - N/A% 29.93 in 10.0 mi ENE 11.5 mph 24.2 mph N/A   Overcast
10:56 AM - - - N/A% 29.93 in 10.0 mi ENE 11.5 mph 20.7 mph N/A   Overcast
11:16 AM - - - N/A% 29.93 in 10.0 mi ENE 15.0 mph - N/A   Overcast
11:36 AM - - - N/A% 29.92 in 10.0 mi NE 17.3 mph - N/A   Overcast
11:56 AM - - - N/A% 29.90 in 10.0 mi NE 17.3 mph 24.2 mph 0.01 in   Overcast
12:16 PM - - - N/A% 29.90 in 10.0 mi NE 24.2 mph 27.6 mph N/A   Overcast
12:36 PM - - - N/A% 29.88 in 7.0 mi NE 23.0 mph 33.4 mph N/A   Overcast
12:56 PM - - - N/A% 29.86 in 10.0 mi ENE 23.0 mph 29.9 mph N/A   Mostly Cloudy
1:16 PM - - - N/A% 29.84 in 9.0 mi ENE 20.7 mph 31.1 mph N/A   Overcast
1:36 PM - - - N/A% 29.83 in 10.0 mi ENE 19.6 mph 26.5 mph N/A   Overcast
1:56 PM - - - N/A% 29.82 in 10.0 mi ENE 19.6 mph 31.1 mph N/A   Mostly Cloudy
2:16 PM - - - N/A% 29.80 in 10.0 mi ENE 24.2 mph 33.4 mph N/A   Scattered Clouds
2:36 PM - - - N/A% 29.77 in 10.0 mi ENE 20.7 mph 26.5 mph N/A   Mostly Cloudy
2:56 PM - - - N/A% 29.75 in 10.0 mi ENE 19.6 mph 28.8 mph N/A   Overcast
3:16 PM - - - N/A% 29.76 in 10.0 mi ENE 20.7 mph 26.5 mph N/A   Overcast
3:36 PM - - - N/A% 29.74 in 10.0 mi ENE 19.6 mph 29.9 mph N/A   Overcast
3:56 PM - - - N/A% 29.72 in 9.0 mi ENE 19.6 mph 29.9 mph N/A   Mostly Cloudy
4:16 PM - - - N/A% 29.72 in 10.0 mi ENE 20.7 mph 29.9 mph N/A   Mostly Cloudy
4:36 PM - - - N/A% 29.71 in 10.0 mi ENE 18.4 mph 29.9 mph N/A   Mostly Cloudy
4:56 PM - - - N/A% 29.70 in 10.0 mi ENE 15.0 mph 25.3 mph N/A   Overcast
5:16 PM - - - N/A% 29.70 in 10.0 mi ENE 17.3 mph 24.2 mph N/A   Mostly Cloudy
5:36 PM - - - N/A% 29.69 in 10.0 mi ENE 19.6 mph 24.2 mph N/A   Overcast
5:56 PM - - - N/A% 29.68 in 10.0 mi ENE 16.1 mph 24.2 mph N/A   Overcast
6:16 PM - - - N/A% 29.69 in 10.0 mi ENE 16.1 mph 24.2 mph N/A   Overcast
6:36 PM - - - N/A% 29.68 in 10.0 mi ENE 10.4 mph 21.9 mph N/A   Overcast
6:56 PM - - - N/A% 29.68 in 10.0 mi ENE 12.7 mph 24.2 mph N/A   Overcast
7:16 PM - - - N/A% 29.67 in 10.0 mi ENE 12.7 mph 19.6 mph N/A   Overcast
7:36 PM - - - N/A% 29.67 in 10.0 mi ENE 16.1 mph 23.0 mph N/A   Overcast
7:56 PM - - - N/A% 29.65 in 10.0 mi ENE 12.7 mph 27.6 mph N/A   Overcast
8:16 PM - - - N/A% 29.64 in 10.0 mi ENE 17.3 mph 23.0 mph N/A   Overcast
8:36 PM - - - N/A% 29.62 in 10.0 mi ENE 16.1 mph 26.5 mph N/A   Overcast
8:56 PM - - - N/A% 29.61 in 10.0 mi ENE 17.3 mph 25.3 mph N/A   Overcast
9:16 PM - - - N/A% 29.60 in 10.0 mi ENE 17.3 mph 32.2 mph N/A   Overcast
9:36 PM - - - N/A% 29.60 in 10.0 mi ENE 21.9 mph 26.5 mph N/A   Mostly Cloudy
9:56 PM - - - N/A% 29.58 in 10.0 mi ENE 15.0 mph 25.3 mph N/A   Overcast
10:16 PM - - - N/A% 29.57 in 10.0 mi ENE 17.3 mph 25.3 mph N/A   Overcast
10:36 PM - - - N/A% 29.57 in 10.0 mi ENE 17.3 mph 23.0 mph N/A   Overcast
10:56 PM - - - N/A% 29.57 in 10.0 mi ENE 15.0 mph 19.6 mph N/A   Overcast
11:16 PM - - - N/A% 29.56 in 10.0 mi ENE 16.1 mph 23.0 mph N/A   Overcast
11:36 PM - - - N/A% 29.56 in 10.0 mi ENE 20.7 mph 26.5 mph N/A   Overcast
11:56 PM - - - N/A% 29.55 in 10.0 mi ENE 15.0 mph 21.9 mph N/A   Overcast